Location: Putah Creek Observatory
(38.7021°N, 122.3865°W)
Time: 11:42:35
(UTC-07:00)

ISS - Visible Passes

Search period start: 19 March 2019 00:00
Search period end: 29 March 2019 00:00
Orbit: 406 x 411 km, 51.6° (Epoch: 20 March)

Date Brightness Start Highest point End Pass type
(mag) Time Alt. Az. Time Alt. Az. Time Alt. Az.
19 Mar -1.9 20:14:08 10° SSE 20:15:46 14° SE 20:15:46 14° SE visible
20 Mar -3.7 20:57:57 10° SW 21:00:51 65° SSW 21:00:51 65° SSW visible
21 Mar -3.2 20:07:12 10° SSW 20:10:17 37° SE 20:12:53 13° ENE visible
21 Mar -1.1 21:44:07 10° W 21:45:40 20° WNW 21:45:40 20° WNW visible
22 Mar -2.6 20:52:38 10° WSW 20:55:46 40° NNW 20:57:29 22° NNE visible
23 Mar -3.6 20:01:24 10° SW 20:04:42 75° NW 20:07:59 10° NE visible
23 Mar -1.0 21:39:43 10° WNW 21:41:43 15° NNW 21:41:51 15° NNW visible
24 Mar -1.4 20:47:53 10° WNW 20:50:26 21° NNW 20:53:01 10° NNE visible
25 Mar -2.0 19:56:14 10° W 19:59:13 31° NNW 20:02:13 10° NE visible
25 Mar -0.7 21:35:52 10° NNW 21:36:36 11° NNW 21:37:16 10° N visible
26 Mar -0.9 20:43:34 10° NW 20:45:13 13° NNW 20:46:52 10° NNE visible
27 Mar -1.2 19:51:33 10° WNW 19:53:52 17° NNW 19:56:11 10° NNE visible
